Torna al catalogo

CZ-4C DEB

AttivoLEO
NORAD 43627·DEBRIS·🇨🇳 China

Lanciato Nov 20, 2013 da Taiyuan Satellite Launch Center

Loading…

Prossimi Passaggi (prossime 24 ore)

TLE

AggiornatoSource: Space-Track

Epoca: Sep 14, 2026, 23:26 UTC

1 43627U 13065D   26257.97685847  .00009711  00000-0  32569-2 0  9998
2 43627 100.5831 156.1212 0109778 151.5249 209.1986 14.34151796410684

Traccia CZ-4C DEB in tempo reale con AllMySat

Download on the App Store